Tracking 35280 objects as of 7-Sep-2026
HD Live streaming from Space Station
objects crossing your sky now

SALYUT 4 DEB


SALYUT 4 DEB is no longer on orbit


NORAD ID: 7662
Int'l Code: 1974-104N
Launch date: December 26, 1974
Source: Commonwealth of Independent States (former USSR) (CIS)
Launch site: TYURATAM MISSILE AND SPACE COMPLEX (TTMTR)
Decay date: 1975-09-10

Note: This is SATELLITE DEBRIS
Your satellite tracking list
Your tracking list is empty




NASA's NSSDC Master Catalog

Two Line Element Set (TLE):
1 07662U 74104  N 75239.28216024  .00346207 +00000-0 +00000-0 0  9990
2 07662 051.5788 329.1945 0004812 057.5203 302.6234 16.11708614038755
Source of the keplerian elements: AFSPC